Weather History for KULM - October, 2012

Change the Weather History Date:

Friday, October 19, 2012

  Actual Average Record
Temperature  
Mean Temperature 46 °F -  
Max Temperature 48 °F 59 °F 87 °F (2003)
Min Temperature 44 °F 33 °F 12 °F (1972)
Degree Days  
Heating Degree Days 19    
Moisture  
Dew Point 44 °F    
Average Humidity 92    
Maximum Humidity 100    
Minimum Humidity 87    
Precipitation  
Precipitation 0.01 in - - ()
Sea Level Pressure  
Sea Level Pressure 29.61 in    
Wind  
Wind Speed 11 mph (NW)    
Max Wind Speed 23 mph    
Max Gust Speed 30 mph    
Visibility 8 miles    
Events Rain    
Averages and records for this station are not official NWS values.
T = Trace of Precipitation, MM = Missing Value Source: NWS Daily Summary

Daily Weather History Graph

Daily Weather History Graph

Search for Another Location

Airport or City:

Trip Planner

Search our weather history database for the weather conditions in past years. The results will help you decide how hot, cold, wet, or windy it might be!

Date:

Astronomy

Oct. 19, 2012 Rise Set
Actual Time 7:38 AM CDT 6:26 PM CDT
Civil Twilight 7:09 AM CDT 6:55 PM CDT
Nautical Twilight 6:35 AM CDT 7:29 PM CDT
Astronomical Twilight 6:01 AM CDT 8:02 PM CDT
Moon 12:30 PM CDT (10/19) 9:57 PM CDT (10/19)
Length of Visible Light 11h 46m
Length of Day
10h 47m
Waxing Crescent, 24% of the Moon is Illuminated
Oct 19
Waxing Crescent
Oct 21
First Quarter
Oct 29
Full
Nov 6
Last Quarter
Nov 13
New

Hourly Weather History & Observations

Time (CDT) Temp. Windchill Dew Point Humidity Pressure Visibility Wind Dir Wind Speed Gust Speed Precip Events Conditions
12:33 AM 46.4 °F 41.9 °F 44.6 °F 93% 29.40 in 10.0 mi NW 9.2 mph - N/A   Light Drizzle
12:53 AM 46.4 °F 42.4 °F 44.6 °F 93% 29.40 in 10.0 mi NNW 8.1 mph - N/A Rain Light Rain
1:13 AM 46.4 °F 42.4 °F 44.6 °F 93% 29.42 in 10.0 mi NNW 8.1 mph - N/A   Drizzle
1:33 AM 46.4 °F 41.5 °F 44.6 °F 93% 29.42 in 7.0 mi NNW 10.4 mph - N/A Rain Light Rain
1:52 AM 46.4 °F 41.9 °F 44.6 °F 93% 29.43 in 7.0 mi NNW 9.2 mph - N/A Rain Light Rain
2:13 AM 46.4 °F 41.9 °F 44.6 °F 93% 29.44 in 7.0 mi NNW 9.2 mph - N/A Rain Light Rain
2:33 AM 46.4 °F 42.9 °F 44.6 °F 93% 29.45 in 7.0 mi NNW 6.9 mph - N/A Rain Light Rain
2:53 AM 46.4 °F 43.5 °F 44.6 °F 93% 29.45 in 10.0 mi NNW 5.8 mph - N/A Rain Light Rain
3:13 AM 46.4 °F 42.9 °F 44.6 °F 93% 29.46 in 5.0 mi NW 6.9 mph - N/A Rain Light Rain
3:32 AM 46.4 °F 42.9 °F 44.6 °F 93% 29.46 in 1.0 mi NW 6.9 mph - N/A   Drizzle
3:53 AM 46.4 °F 43.5 °F 46.4 °F 100% 29.47 in 0.8 mi NNW 5.8 mph - N/A   Overcast
4:13 AM 46.4 °F 43.5 °F 46.4 °F 100% 29.48 in 1.0 mi NNW 5.8 mph - N/A Rain Light Rain
4:33 AM 48.2 °F - 46.4 °F 93% 29.49 in 2.5 mi NW 5.8 mph - N/A Rain Rain
4:53 AM 48.2 °F - 46.4 °F 93% 29.49 in 7.0 mi NW 4.6 mph - N/A   Overcast
5:13 AM 46.4 °F 44.3 °F 46.4 °F 100% 29.50 in 10.0 mi WNW 4.6 mph - N/A   Overcast
5:33 AM 48.2 °F - 46.4 °F 93% 29.51 in 10.0 mi WNW 6.9 mph - N/A   Mostly Cloudy
5:53 AM 48.2 °F - 46.4 °F 93% 29.52 in 10.0 mi NW 9.2 mph - N/A   Scattered Clouds
6:13 AM 46.4 °F 40.7 °F 44.6 °F 93% 29.53 in 7.0 mi NW 12.7 mph - N/A Rain Rain
6:32 AM 46.4 °F 40.1 °F 44.6 °F 93% 29.54 in 10.0 mi NW 15.0 mph - N/A   Scattered Clouds
6:53 AM 44.6 °F 38.4 °F 44.6 °F 100% 29.55 in 10.0 mi NW 12.7 mph - N/A   Mostly Cloudy
7:13 AM 44.6 °F 38.1 °F 42.8 °F 93% 29.55 in 10.0 mi NW 13.8 mph 19.6 mph N/A   Light Drizzle
7:32 AM 44.6 °F 38.1 °F 42.8 °F 93% 29.55 in 7.0 mi NW 13.8 mph - N/A   Mostly Cloudy
7:53 AM 44.6 °F 38.8 °F 42.8 °F 93% 29.55 in 3.0 mi WNW 11.5 mph - N/A   Scattered Clouds
8:13 AM 44.6 °F 37.8 °F 42.8 °F 93% 29.55 in 5.0 mi WNW 15.0 mph - N/A   Clear
8:33 AM 44.6 °F 38.4 °F 42.8 °F 93% 29.56 in 2.5 mi WNW 12.7 mph - N/A   Mist
8:53 AM 44.6 °F 37.4 °F 42.8 °F 93% 29.57 in 0.8 mi NW 16.1 mph - N/A   Mist
9:13 AM 44.6 °F 36.6 °F 42.8 °F 93% 29.57 in 1.8 mi NW 19.6 mph - N/A   Mist
9:33 AM 46.4 °F 39.2 °F 44.6 °F 93% 29.57 in 1.5 mi WNW 18.4 mph 24.2 mph N/A   Mist
9:53 AM 44.6 °F 36.4 °F 42.8 °F 93% 29.59 in 1.5 mi NW 20.7 mph 28.8 mph 0.01 in   Mist
10:12 AM 44.6 °F 36.6 °F 42.8 °F 93% 29.60 in 1.0 mi NW 19.6 mph - N/A   Mist
10:33 AM 44.6 °F 36.4 °F 42.8 °F 93% 29.60 in 1.5 mi NW 20.7 mph 27.6 mph N/A   Mist
10:53 AM 44.6 °F 36.4 °F 44.6 °F 100% 29.61 in 3.0 mi NW 20.7 mph 29.9 mph N/A   Mist
11:13 AM 46.4 °F 39.2 °F 44.6 °F 93% 29.61 in 5.0 mi NW 18.4 mph 25.3 mph N/A   Light Drizzle
11:33 AM 46.4 °F 38.3 °F 44.6 °F 93% 29.61 in 10.0 mi NW 23.0 mph 27.6 mph N/A   Light Drizzle
11:53 AM 46.4 °F 39.2 °F 44.6 °F 93% 29.62 in 10.0 mi NW 18.4 mph 25.3 mph N/A   Light Drizzle
12:13 PM 46.4 °F 38.7 °F 44.6 °F 93% 29.62 in 10.0 mi NW 20.7 mph 25.3 mph N/A   Light Drizzle
12:33 PM 46.4 °F 39.8 °F 44.6 °F 93% 29.63 in 10.0 mi NNW 16.1 mph 25.3 mph N/A Rain Light Rain
12:53 PM 48.2 °F - 44.6 °F 87% 29.63 in 10.0 mi NW 18.4 mph 23.0 mph N/A Rain Light Rain
1:12 PM 48.2 °F - 46.4 °F 93% 29.63 in 10.0 mi NW 18.4 mph 21.9 mph N/A Rain Light Rain
1:33 PM 48.2 °F - 46.4 °F 93% 29.63 in 10.0 mi NW 17.3 mph 23.0 mph N/A   Clear
1:53 PM 48.2 °F - 46.4 °F 93% 29.63 in 10.0 mi NW 16.1 mph 20.7 mph N/A   Clear
2:13 PM 48.2 °F - 46.4 °F 93% 29.64 in 10.0 mi NW 12.7 mph 17.3 mph N/A   Clear
2:33 PM 48.2 °F - 46.4 °F 93% 29.64 in 10.0 mi NW 15.0 mph - N/A   Clear
2:53 PM 48.2 °F - 44.6 °F 87% 29.64 in 10.0 mi NW 15.0 mph 19.6 mph N/A   Clear
3:13 PM 48.2 °F - 44.6 °F 87% 29.65 in 10.0 mi NW 17.3 mph - N/A   Clear
3:33 PM 46.4 °F 40.1 °F 44.6 °F 93% 29.65 in 10.0 mi NW 15.0 mph - N/A   Clear
3:53 PM 48.2 °F - 44.6 °F 87% 29.66 in 10.0 mi NW 16.1 mph - N/A   Clear
4:13 PM 48.2 °F - 44.6 °F 87% 29.66 in 4.0 mi NW 16.1 mph - N/A   Clear
4:33 PM 48.2 °F - 44.6 °F 87% 29.66 in 2.0 mi NNW 12.7 mph - N/A   Mist
4:53 PM 48.2 °F - 46.4 °F 93% 29.67 in 10.0 mi NW 11.5 mph 16.1 mph N/A   Clear
5:13 PM 48.2 °F - 44.6 °F 87% 29.68 in 10.0 mi NW 13.8 mph - N/A   Scattered Clouds
5:33 PM 46.4 °F 39.2 °F 44.6 °F 93% 29.69 in 10.0 mi NW 18.4 mph - N/A   Scattered Clouds
5:53 PM 46.4 °F 39.8 °F 44.6 °F 93% 29.69 in 10.0 mi WNW 16.1 mph - N/A   Scattered Clouds
6:13 PM 46.4 °F 39.8 °F 44.6 °F 93% 29.70 in 10.0 mi WNW 16.1 mph - N/A   Mostly Cloudy
6:33 PM 46.4 °F 40.4 °F 44.6 °F 93% 29.71 in 10.0 mi WNW 13.8 mph - N/A   Mostly Cloudy
6:53 PM 46.4 °F 40.4 °F 42.8 °F 87% 29.71 in 10.0 mi NW 13.8 mph - N/A   Mostly Cloudy
7:13 PM 46.4 °F 40.1 °F 42.8 °F 87% 29.72 in 10.0 mi NW 15.0 mph - N/A   Mostly Cloudy
7:32 PM 46.4 °F 41.5 °F 42.8 °F 87% 29.72 in 10.0 mi NW 10.4 mph - N/A   Mostly Cloudy
7:53 PM 46.4 °F 40.7 °F 42.8 °F 87% 29.73 in 10.0 mi NW 12.7 mph - N/A   Mostly Cloudy
8:13 PM 44.6 °F 40.2 °F 42.8 °F 93% 29.73 in 10.0 mi NW 8.1 mph - N/A   Overcast
8:33 PM 44.6 °F 40.7 °F 42.8 °F 93% 29.74 in 10.0 mi WNW 6.9 mph - N/A   Mostly Cloudy
8:53 PM 46.4 °F 42.4 °F 42.8 °F 87% 29.74 in 10.0 mi NW 8.1 mph - N/A   Mostly Cloudy
9:13 PM 44.6 °F 39.7 °F 42.8 °F 93% 29.74 in 10.0 mi WNW 9.2 mph - N/A   Overcast
9:32 PM 44.6 °F 38.8 °F 42.8 °F 93% 29.75 in 10.0 mi WNW 11.5 mph - N/A   Overcast
9:53 PM 44.6 °F 39.2 °F 42.8 °F 93% 29.74 in 10.0 mi NW 10.4 mph - N/A   Mostly Cloudy
10:13 PM 44.6 °F 42.2 °F 42.8 °F 93% 29.74 in 10.0 mi NW 4.6 mph - N/A   Mostly Cloudy
10:32 PM 44.6 °F 40.2 °F 42.8 °F 93% 29.75 in 10.0 mi WNW 8.1 mph - N/A   Mostly Cloudy
10:53 PM 44.6 °F 39.7 °F 42.8 °F 93% 29.75 in 10.0 mi WNW 9.2 mph - N/A   Overcast
11:13 PM 44.6 °F 39.7 °F 42.8 °F 93% 29.75 in 10.0 mi NW 9.2 mph - N/A   Mostly Cloudy
11:32 PM 44.6 °F 40.7 °F 42.8 °F 93% 29.75 in 10.0 mi NNW 6.9 mph - N/A   Mostly Cloudy
11:53 PM 44.6 °F 43.1 °F 42.8 °F 93% 29.75 in 10.0 mi NW 3.5 mph - N/A   Mostly Cloudy